GORIZONT 14 [-]

Last updated on Tue Jun 27 2023 00:03:00 GMT+0000 (Coordinated Universal Time)

1 17969U 87040A 23176.95396521 -.00000029 00000+0 00000+0 0 9990 2 17969 12.5817 327.2789 0032445 180.0332 184.2106 0.97657715109235
UTC large
Height (km)
Speed (km/s)
/
Latitude / Longitude
Inclination (degrees)
Orbital Period (minutes)
Azimuth
Elevation
Range (km)
Doppler Factor

Next 0 passes for location: London (51.5072 / 0.1276)

Sorry there are no passes over London.